STARLINK-1398, 45699

Orbit data source: Space-Track

STARLINK-1398, 45699 is a payload satellite owned by SpaceX/Seattle (US) in LEO that was launched on Thu, 04 Jun 2020 UTC via an FALCON 9 launch vehicle from the Air Force Eastern Test Range (AFETR). Payload-class satellites include a variety of spacecraft equipped with specific instruments for various scientific and technological missions. These include communications satellites like Starlink; space stations such as the ISS; scientific satellites like the Hubble; Earth observation satellites from companies like Planet Labs, Umbra, and HawkEye 360; GPS; miniature CubeSats for education and research; and military/defense satellites.

Loading next visibility...
Identifier
45699, 2020-035AU
Orbit
LEO
Last TLE update
8 hours ago
Origin
Manufacturer
SpaceX/Seattle
Mission
Partially operational Commercial Communications
Bus & Motor
STARLINK, Unknown motor
Mass
260 kg wet, ~248 kg dry
Launch date (UTC)
2020-06-04 (5 years ago)
Launch vehicle
FALCON 9
Launch site
Air Force Eastern Test Range (AFETR)
Object type
Payload
Rocket body
Debris
Shape & HBR
Box + 1 Pan, 8.86 m
Radar Cross Section
13.562 m², Large (>1 m²)

Expand to show TLE details & history

TLE from 8 hours ago
0 STARLINK-1398
1 45699U 20035AU  25191.78658404  .00025455  00000-0  78372-3 0  9994
2 45699  53.0494  29.6878 0006018 159.5343 200.5838 15.33491616282507
Epoch: 2025-07-10T18:52Z
TLE epoch observation values (Epoch: 2025-07-10T18:52:40.861Z)
Latitude
-0.00497°
Longitude
177.56596°
Altitude
470.15 km
Speed
7.63 km/s
True Right ascension
01h 58m 44s
True Declination
0° 00' 18"
Sunlit
Object was in daylight at epoch
Visualization orbit readout
Latitude
3.90164°
Longitude
178.9643°
Altitude
469.571 km
Speed
7.631 km/s
Apparent Right ascension
02h 27m 28s
Apparent Declination
-17° 12' 39"
Sunlit
Object is in daylight
Visualization observer readout
Local Sidereal Time
14:59:48
Azimuth
19.47° NNE
Elevation
-66.238°
Doppler factor
1
Orbital elements
Apogee altitude
469.798 km
Perigee altitude
461.561 km
Semi-major axis
6,843.816 km
Eccentricity
0.0006
Inclination
53.0494°
RAAN
29.6878°
Arg. of periapsis
159.5343°
True anomaly
Unknown
Mean anomaly
200.5838°
Eccentric anomaly
Unknown
Mean motion
3.8335 °/min
Orbital period
93.91 mins
BSTAR
0.00078372
Loading maneuver chart data...
Loading SW <> Apogee altitude chart data...

STARLINK-1398 Visibility forecast

Observer location: undefined°, undefined°

Span
Click to sort rows by Start time (UTC) header in descending order
Start Az.
Max El. time (UTC)
Max El. Az.
Max El.
End time (UTC)
End Az.
6 mins2025-07-11 15:22:11.819Z203.695° SW2025-07-11 15:25:11.819Z142.025° SSE33.061°2025-07-11 15:28:11.819Z66.729° ENE
5 mins2025-07-11 17:01:11.819Z284.291° WNW2025-07-11 17:03:11.819Z332.909° NNW24.588°2025-07-11 17:06:11.819Z30.916° NE
5 mins2025-07-11 21:57:11.819Z332.75° NNW2025-07-11 21:59:11.819Z24.876° NE31.434°2025-07-11 22:02:11.819Z99.194° ESE
4 mins2025-07-11 23:35:11.819Z270.506° WNW2025-07-11 23:37:11.819Z221.648° SW22.654°2025-07-11 23:39:11.819Z180.331° SSW
|